This is the latest recevied weather packets stored in our database for station/object KT5AL. If no packets are shown the sender has not sent any weather packets the latest 10 day(s).
| Time | Temp. | Humidity | Pressure | Rain* | Wind** | Luminosity | Snow |
|---|---|---|---|---|---|---|---|
| 1777772406 | 20° C | 58% | 1019.2 hPa | 0 mm | - | - | - |
| 1777772103 | 20° C | 56% | 1018.8 hPa | 0 mm | - | - | - |
| 1777771806 | 20.56° C | 54% | 1018.8 hPa | 0 mm | - | - | - |
| 1777771503 | 20.56° C | 52% | 1018.5 hPa | 0 mm | - | - | - |
| 1777771206 | 21.11° C | 51% | 1018.5 hPa | 0 mm | - | - | - |
| 1777770904 | 21.11° C | 50% | 1018.5 hPa | 0 mm | - | - | - |
| 1777770607 | 21.67° C | 48% | 1018.5 hPa | 0 mm | - | - | - |
| 1777770304 | 21.67° C | 47% | 1017.8 hPa | 0 mm | - | - | - |
| 1777770007 | 22.22° C | 46% | 1017.8 hPa | 0 mm | - | - | - |
| 1777769735 | 22.78° C | 46% | 1017.8 hPa | 0 mm | - | - | - |
| 1777769406 | 22.78° C | 45% | 1017.8 hPa | 0 mm | - | - | - |
| 1777769104 | 22.78° C | 45% | 1017.8 hPa | 0 mm | - | - | - |
| 1777768807 | 23.33° C | 45% | 1017.8 hPa | 0 mm | - | - | - |
| 1777768504 | 23.33° C | 45% | 1017.5 hPa | 0 mm | - | - | - |
| 1777768207 | 23.33° C | 45% | 1017.5 hPa | 0 mm | - | - | - |
| 1777767905 | 23.33° C | 44% | 1017.1 hPa | 0 mm | - | - | - |
| 1777767608 | 23.33° C | 43% | 1017.1 hPa | 0 mm | - | - | - |
| 1777767305 | 23.33° C | 41% | 1017.1 hPa | 0 mm | - | - | - |
| 1777767008 | 23.33° C | 39% | 1017.1 hPa | 0 mm | - | - | - |
| 1777766705 | 23.33° C | 40% | 1017.1 hPa | 0 mm | - | - | - |
| 1777766408 | 23.33° C | 39% | 1017.1 hPa | 0 mm | - | - | - |
| 1777766105 | 23.33° C | 38% | 1017.1 hPa | 0 mm | - | - | - |
| 1777765808 | 23.33° C | 39% | 1017.1 hPa | 0 mm | - | - | - |
| 1777765505 | 22.78° C | 37% | 1016.8 hPa | 0 mm | - | - | - |
| 1777765208 | 23.33° C | 39% | 1016.8 hPa | 0 mm | - | - | - |
* Rain latest hour (hover to see other rain measurements)
** Current wind speed in m/s (hover to see current wind gust speed)